Location: Six Mile Lake
(44.9000°N, 79.7170°W)
Time: 02:02:27
(UTC-04:00)

O/OREOS (USA 219) - Pass Details

Date: 03 July 2022
Orbit: 621 x 646 km, 72.0° (Epoch: 22 May)

Event Time Altitude Azimuth Distance (km) Brightness Sun altitude
Rises 23:24:04 0° 350° (N) 2,964 ? -17.0°
Reaches altitude 10° 23:27:43 10° 20° (NNE) 2,052 ? -17.3°
Maximum altitude 23:29:43 13° 46° (NE) 1,882 ? -17.4°
Drops below altitude 10° 23:31:43 10° 72° (ENE) 2,049 ? -17.6°
Enters shadow 23:33:16 - 87° (E) 2,369 ? -17.7°
